Regional Weather Roundup
Issued by NWS

Home | Current Version | Previous Version | Graphics & Text | Print | Product List | Glossary On
Versions: 1 2 3 4 5 6 7 8 9 10 11 12 13 14 15 16 17 18 19 20 21 22 23 24 25 26 27 28 29 30 31 32 33 34 35 36 37 38 39 40 41 42 43 44 45 46 47 48 49 50
000
ASUS45 KTFX 181519
RWRMT
MONTANA HOURLY WEATHER ROUNDUP
NATIONAL WEATHER SERVICE GREAT FALLS MT
919 AM MDT FRI APR 18 2014

NOTE: "FAIR" INDICATES FEW OR NO CLOUDS BELOW 12000 FEET WITH NO
SIGNIFICANT WEATHER AND/OR OBSTRUCTIONS TO VISIBILITY.

* THESE STATIONS ARE NOT UNDER NWS QUALITY CONTROL. THEY DO NOT
   REPORT WEATHER SUCH AS PRECIPITATION OR FOG.

MTZ001>007-043-181600-
WEST OF THE DIVIDE
CITY           SKY/WX    TMP DP  RH WIND       PRES   REMARKS
KALISPELL      PTSUNNY   43  32  65 S13       29.77R
MISSOULA       CLOUDY    43  36  76 NW12      29.87R
BUTTE          CLOUDY    39  36  89 CALM      29.79R
MULLAN PASS    SNOW      25  25 100 W9G21     29.78S VSB M1/4 WCI  16
* ESSEX        N/A       40  34  79 E3G12      N/A
* LINCOLN      N/A       40  34  79 S5G11      N/A   WCI  36
* LOOKOUT PASS N/A       32  26  79 SE9G14     N/A   WCI  24
* PLAINS APT   PTCLDY    46  25  44 SW15G22   29.85R
* POLSON       N/A       40  28  62 SW4G11     N/A
* SEELEY LAKE  N/A       38  37  96 SE2G7      N/A
* THOMP F APT  PTCLDY    39  39 100 SW17G35    N/A   WCI  30
$$

MTZ008-052>055-181600-
SOUTHWEST MONTANA
CITY           SKY/WX    TMP DP  RH WIND       PRES   REMARKS
BOZEMAN        LGT RAIN  45  37  74 SE13      29.78R
DILLON         CLOUDY    45  36  71 SW16      29.78S
W YELLOWSTONE  N/A       39  38  96 SW7G17     N/A   WCI  34
* THREE FORKS  CLOUDY    45   0  15 N/A        N/A
* BOULDER HILL N/A       40  30  68 SE3G8      N/A
* MONIDA PASS  N/A       35  35 100 W18G24     N/A   WCI  24
* RAYNOLDS PAS N/A       39  21  48 SE23G30    N/A   WCI  28
* WHITEHALL    N/A       46  39  77 NW8G13     N/A
* WISE RIVER   N/A       40  33  76 NW6G18     N/A   WCI  36
$$

MTZ009>010-012-014-046-048-049-054-181600-
EAST SLOPES AND CENTRAL MONTANA
CITY           SKY/WX    TMP DP  RH WIND       PRES   REMARKS
CUT BANK       PTSUNNY   45  30  56 SW28G36   29.63F
GREAT FALLS    CLOUDY    46  37  71 SW17      29.66S
HELENA         CLOUDY    48  37  66 VRB5      29.74S
MALMSTROM AFB  CLOUDY    48  37  66 S16       29.64R
* CONRAD       CLOUDY    46  39  77 N/A        N/A
* DEARBORN     N/A       49  31  50 S11G21     N/A
* EAST GLACIER N/A       39  28  65 W35G45     N/A   WCI  26
* MONARCH      N/A       41  30  65 SW7G12     N/A
* PENDROY      N/A       45  30  56 NW14       N/A
* ROGERS PASS  N/A       37  30  76 SE15G25    N/A   WCI  28
* SAINT MARY   N/A       39  31  73 S7G19      N/A   WCI  34
* SWEET GRASS  N/A       43  35  73 SW28G34    N/A
* WHITE SULPH  N/A       41  39  93 S5         N/A
$$

MTZ011-013-016-021-035-040-045-047-050-051-181600-
NORTH CENTRAL MONTANA
CITY           SKY/WX    TMP DP  RH WIND       PRES   REMARKS
HAVRE          CLOUDY    48  45  89 CALM      29.61F
LEWISTOWN      CLOUDY    48  36  63 SW15      29.68R
* CHINOOK      CLOUDY    45  41  86 E6        29.63F
* FORT BENTON  CLOUDY    52  39  61 SW10      29.66S
* MALTA APT    CLOUDY    43  34  71 E6        29.63F
* CHESTER      N/A       45  43  93 S4         N/A
* DENTON       N/A       49  36  61 W12        N/A
* GEYSER       N/A       48  34  59 SW14G23    N/A
* JUDITH GAP   N/A       47  33  58 W13        N/A
* LOMA         N/A       51  41  69 SW9        N/A
$$

MTZ017>020-022>027-061-062-181600-
NORTHEAST MONTANA
CITY           SKY/WX    TMP DP  RH WIND       PRES   REMARKS
GLASGOW        CLOUDY    41  30  65 E21       29.64F
GLENDIVE       PTSUNNY   43  28  56 SE7       29.78F
JORDAN         CLOUDY    48  37  66 SE9       29.62F
SIDNEY         PTSUNNY   43  28  56 SE17      29.82F
WOLF POINT     CLOUDY    43  27  53 E17       29.73F
* BEAVER HILL  N/A       40  29  65 E29G38     N/A   WCI  29
* CIRCLE       N/A       43  34  71 E11        N/A
* LINDSAY DVD  N/A       37  29  73 E11G16     N/A   WCI  29
* NAVAJO       N/A       34  28  79 SE18G26    N/A   WCI  23
* SACO         N/A       42  32  68 E13G19     N/A
$$

MTZ028>042-056>058-181600-
SOUTHCENTRAL AND SOUTHEAST MONTANA
CITY           SKY/WX    TMP DP  RH WIND       PRES   REMARKS
BAKER          PTCLDY    43  30  60 SE23G31   29.77F
BILLINGS       PTSUNNY   52  36  55 NW3       29.67R
LIVINGSTON     RAIN      45 N/A N/A W8        29.76R VSB 3
MILES CITY     CLOUDY    48  36  63 SE14      29.69F
* EKALAKA APT  PTCLDY    50  34  54 E18G23    29.74F
* LAUREL APT   PTSUNNY   55  30  39 SW9        N/A
* ROUNDUP APT  CLOUDY    45  34  65 S5         N/A
* HYSHAM       N/A       51  29  43 W4         N/A
* LAME DEER    N/A       53  33  47 S12        N/A
* REED POINT   N/A       45  35  68 NW6        N/A
* ROSCOE HILL  N/A       49  31  50 SW5G12     N/A
$$

REGIONAL REPORTS...DAKOTAS
CITY           SKY/WX    TMP DP  RH WIND       PRES   REMARKS
WILLISTON      PTSUNNY   39  25  57 SE20G28   29.86F WCI  29
DICKINSON      PTCLDY    39  27  62 SE21G30   29.82F WCI  29
CROSBY         PTCLDY    37  25  62 SE28G35   29.88F WCI  25
TIOGA          PTSUNNY   36  25  64 SE26G36   29.91F WCI  24
WATFORD CITY   SUNNY     41  27  58 SE16G29   29.83F
BISMARCK       PTCLDY    45  25  45 SE25G36   29.98F
GRAND FORKS    CLOUDY    37  21  52 SE10      30.26S WCI  30
FARGO          CLOUDY    39  25  57 SE14G20   30.25F WCI  31
BUFFALO SD     PTCLDY    43  32  65 SE18      29.73F
RAPID CITY     PTSUNNY   45  37  74 SE9       29.80F
$$

REGIONAL REPORTS...WYOMING/IDAHO/WASHINGTON
CITY           SKY/WX    TMP DP  RH WIND       PRES   REMARKS
GILLETTE       CLOUDY    50  32  50 S21       29.75F
SHERIDAN       PTSUNNY   48  37  66 NE9       29.70S
CODY           PTCLDY    54  37  53 S3        29.74F
YELLOWSTONE LA PTSUNNY   32  32 100 CALM      29.89F
SALMON         CLOUDY    46  36  68 CALM      29.83S
MULLAN PASS    SNOW      25  25 100 W9G21     29.78S VSB M1/4 WCI  16
SAND POINT     CLOUDY    41  32  70 SW13G22   29.82R
SPOKANE        PTCLDY    39  30  70 SW25G32   29.85R WCI  28
$$

REGIONAL REPORTS...ALBERTA
CITY           SKY/WX    TMP DP  RH WIND       PRES   REMARKS
CALGARY        LGT SNOW  32  32 100 N14G22    29.57F VSB 1 1/4 WCI  22
LETHBRIDGE     PTSUNNY   46  36  68 SW12      29.58R
MEDICINE HAT   PTSUNNY   46  41  83 SW8       29.58F
EDMONTON       LGT SNOW  28  27  96 N8        29.67S WCI  20
WATERTON GATE  N/A       37  34  89 W17G25     N/A   WCI  27
CARDSTON       N/A       45  34  65 W8         N/A
MILK RIVER     N/A       46  36  68 SW17G28    N/A
$$

REGIONAL REPORTS...SASKATCHEWAN
CITY           SKY/WX    TMP DP  RH WIND       PRES   REMARKS
SWIFT CURRENT  LGT RAIN  37  36  96 SE13G18   29.64F WCI  29
REGINA         CLOUDY    34  25  70 SE26G36   29.86S WCI  21
VAL MARIE      N/A       41  34  76 SE9        N/A
ASSINIBOIA     N/A       34  32  92 SE16       N/A   WCI  24
CORONACH       N/A       36  28  73 SE18G25    N/A   WCI  26

$$




USA.gov is the U.S. government's official web portal to all federal, state and local government web resources and services.